Hourly Data Report for August 04, 2000

SHERBROOKE A
QUEBEC

45°26'00.000" N
71°41'00.000" W
241.40 m
7028124
71610
YSC

Download Data

Hourly Data (August 2000)
Hourly Data Report for August 4, 2000
TIME
LST
Temp Definition
°C
Dew Point Definition
°C
Rel Hum Definition
%
Precip. Amount Definition
mm

Wind Dir Definition
10's deg

Wind Spd Definition
km/h
Visibility Definition
km
Stn Press Definition
kPa
Hmdx Definition


Wind Chill Definition


Weather Definition


00:00 17.0 13.9 82   27 6 15.0 98.45      
01:00 15.3 12.1 81   26 11 15.0 98.49      
02:00 13.9 11.6 86   24 7 15.0 98.49      
03:00 12.8 10.5 86   26 11 15.0 98.52      
04:00 12.0 10.2 89   24 7 15.0 98.52      
05:00 12.0 10.6 91   23 9 15.0 98.52      
06:00 13.4 11.3 87   22 9 15.0 98.59      
07:00 14.6 11.2 80   22 11 24.1 98.65     Clear
08:00 15.7 11.3 75   19 13 24.1 98.65     Mostly Cloudy
09:00 18.0 10.8 63   25 17 24.1 98.62     Mostly Cloudy
10:00 19.3 10.7 57   22 26 24.1 98.55     Mostly Cloudy
11:00 19.4 10.8 57   23 22 24.1 98.55     Mostly Cloudy
12:00 20.4 9.4 49   26 32 24.1 98.52     Mostly Cloudy
13:00 22.1 11.3 50   27 24 24.1 98.52     Mainly Clear
14:00 20.3 9.9 51   28 35 24.1 98.49     Mostly Cloudy
15:00 21.0 10.7 52   26 24 24.1 98.45     Mainly Clear
16:00 19.9 10.8 56   27 17 24.1 98.49     Mostly Cloudy
17:00 19.9 10.8 56   26 26 15.0 98.49      
18:00 19.3 10.8 58   26 22 15.0 98.49      
19:00 17.6 10.9 65   26 9 15.0 98.49      
20:00 14.9 10.8 76   21 6 15.0 98.55      
21:00 14.5 10.3 76   20 7 15.0 98.55      
22:00 13.0 9.9 81   22 6 15.0 98.55      
23:00 15.0 10.4 74   22 7 15.0 98.55      

Notes on Data Quality.

Legend

  • E = Estimated
  • M = Missing
  • NA = Not Available*
  • [empty] = Indicates an unobserved value
Date modified: